﻿測定場所 (Monitoring sites),日付 (Measurement date),時間 (Measurement time),線量率 最大値 (max) μGy/h,線量率 最小値 (min) μGy/h,線量率 平均値 (average) μGy/h,
江東 (Koto),2016-09-04,23:01～24:00,0.0406,0.0359,0.0379,
江東 (Koto),2016-09-04,22:01～23:00,0.0401,0.0355,0.0381,
江東 (Koto),2016-09-04,21:01～22:00,0.0413,0.0356,0.0377,
江東 (Koto),2016-09-04,20:01～21:00,0.0401,0.0357,0.0380,
江東 (Koto),2016-09-04,19:01～20:00,0.0411,0.0351,0.0377,
江東 (Koto),2016-09-04,18:01～19:00,0.0404,0.0358,0.0378,
江東 (Koto),2016-09-04,17:01～18:00,0.0399,0.0362,0.0378,
江東 (Koto),2016-09-04,16:01～17:00,0.0396,0.0345,0.0380,
江東 (Koto),2016-09-04,15:01～16:00,0.0408,0.0355,0.0381,
江東 (Koto),2016-09-04,14:01～15:00,0.0398,0.0351,0.0375,
江東 (Koto),2016-09-04,13:01～14:00,0.0405,0.0359,0.0379,
江東 (Koto),2016-09-04,12:01～13:00,0.0407,0.0359,0.0379,
江東 (Koto),2016-09-04,11:01～12:00,0.0404,0.0352,0.0376,
江東 (Koto),2016-09-04,10:01～11:00,0.0410,0.0357,0.0379,
江東 (Koto),2016-09-04,09:01～10:00,0.0403,0.0354,0.0379,
江東 (Koto),2016-09-04,08:01～09:00,0.0402,0.0360,0.0379,
江東 (Koto),2016-09-04,07:01～08:00,0.0406,0.0353,0.0378,
江東 (Koto),2016-09-04,06:01～07:00,0.0406,0.0355,0.0377,
江東 (Koto),2016-09-04,05:01～06:00,0.0394,0.0355,0.0377,
江東 (Koto),2016-09-04,04:01～05:00,0.0395,0.0356,0.0379,
江東 (Koto),2016-09-04,03:01～04:00,0.0407,0.0339,0.0378,
江東 (Koto),2016-09-04,02:01～03:00,0.0410,0.0352,0.0377,
江東 (Koto),2016-09-04,01:01～02:00,0.0404,0.0357,0.0379,
江東 (Koto),2016-09-04,00:01～01:00,0.0408,0.0357,0.0380,
江東 (Koto),2016-09-03,23:01～24:00,0.0408,0.0358,0.0380,
江東 (Koto),2016-09-03,22:01～23:00,0.0394,0.0356,0.0377,
江東 (Koto),2016-09-03,21:01～22:00,0.0400,0.0356,0.0378,
江東 (Koto),2016-09-03,20:01～21:00,0.0403,0.0348,0.0378,
江東 (Koto),2016-09-03,19:01～20:00,0.0400,0.0353,0.0377,
江東 (Koto),2016-09-03,18:01～19:00,0.0402,0.0352,0.0378,
江東 (Koto),2016-09-03,17:01～18:00,0.0405,0.0346,0.0378,
江東 (Koto),2016-09-03,16:01～17:00,0.0400,0.0354,0.0380,
江東 (Koto),2016-09-03,15:01～16:00,0.0407,0.0360,0.0379,
江東 (Koto),2016-09-03,14:01～15:00,0.0398,0.0354,0.0377,
江東 (Koto),2016-09-03,13:01～14:00,0.0396,0.0354,0.0376,
江東 (Koto),2016-09-03,12:01～13:00,0.0403,0.0347,0.0378,
江東 (Koto),2016-09-03,11:01～12:00,0.0404,0.0347,0.0378,
江東 (Koto),2016-09-03,10:01～11:00,0.0397,0.0357,0.0377,
江東 (Koto),2016-09-03,09:01～10:00,0.0417,0.0352,0.0379,
江東 (Koto),2016-09-03,08:01～09:00,0.0412,0.0354,0.0376,
江東 (Koto),2016-09-03,07:01～08:00,0.0403,0.0361,0.0380,
江東 (Koto),2016-09-03,06:01～07:00,0.0406,0.0357,0.0382,
江東 (Koto),2016-09-03,05:01～06:00,0.0412,0.0356,0.0379,
江東 (Koto),2016-09-03,04:01～05:00,0.0398,0.0354,0.0378,
江東 (Koto),2016-09-03,03:01～04:00,0.0398,0.0353,0.0378,
江東 (Koto),2016-09-03,02:01～03:00,0.0410,0.0353,0.0376,
江東 (Koto),2016-09-03,01:01～02:00,0.0401,0.0358,0.0377,
江東 (Koto),2016-09-03,00:01～01:00,0.0405,0.0342,0.0375,
江東 (Koto),2016-09-02,23:01～24:00,0.0401,0.0357,0.0377,
江東 (Koto),2016-09-02,22:01～23:00,0.0407,0.0350,0.0378,
江東 (Koto),2016-09-02,21:01～22:00,0.0403,0.0350,0.0377,
江東 (Koto),2016-09-02,20:01～21:00,0.0402,0.0360,0.0379,
江東 (Koto),2016-09-02,19:01～20:00,0.0399,0.0348,0.0377,
江東 (Koto),2016-09-02,18:01～19:00,0.0403,0.0353,0.0377,
江東 (Koto),2016-09-02,17:01～18:00,0.0404,0.0347,0.0377,
江東 (Koto),2016-09-02,16:01～17:00,0.0400,0.0354,0.0379,
江東 (Koto),2016-09-02,15:01～16:00,0.0405,0.0359,0.0379,
江東 (Koto),2016-09-02,14:01～15:00,0.0409,0.0357,0.0379,
江東 (Koto),2016-09-02,13:01～14:00,0.0406,0.0358,0.0378,
江東 (Koto),2016-09-02,12:01～13:00,0.0396,0.0352,0.0378,
江東 (Koto),2016-09-02,11:01～12:00,0.0401,0.0359,0.0378,
江東 (Koto),2016-09-02,10:01～11:00,0.0408,0.0360,0.0383,
江東 (Koto),2016-09-02,09:01～10:00,0.0405,0.0361,0.0381,
江東 (Koto),2016-09-02,08:01～09:00,0.0398,0.0352,0.0380,
江東 (Koto),2016-09-02,07:01～08:00,0.0406,0.0362,0.0381,
江東 (Koto),2016-09-02,06:01～07:00,0.0401,0.0357,0.0381,
江東 (Koto),2016-09-02,05:01～06:00,0.0406,0.0352,0.0381,
江東 (Koto),2016-09-02,04:01～05:00,0.0401,0.0347,0.0379,
江東 (Koto),2016-09-02,03:01～04:00,0.0402,0.0358,0.0379,
江東 (Koto),2016-09-02,02:01～03:00,0.0398,0.0360,0.0380,
江東 (Koto),2016-09-02,01:01～02:00,0.0403,0.0355,0.0377,
江東 (Koto),2016-09-02,00:01～01:00,0.0400,0.0351,0.0376,
江東 (Koto),2016-09-01,23:01～24:00,0.0403,0.0354,0.0378,
江東 (Koto),2016-09-01,22:01～23:00,0.0404,0.0359,0.0379,
江東 (Koto),2016-09-01,21:01～22:00,0.0410,0.0352,0.0378,
江東 (Koto),2016-09-01,20:01～21:00,0.0400,0.0355,0.0378,
江東 (Koto),2016-09-01,19:01～20:00,0.0402,0.0357,0.0377,
江東 (Koto),2016-09-01,18:01～19:00,0.0395,0.0351,0.0375,
江東 (Koto),2016-09-01,17:01～18:00,0.0395,0.0347,0.0375,
江東 (Koto),2016-09-01,16:01～17:00,0.0391,0.0355,0.0372,
江東 (Koto),2016-09-01,15:01～16:00,0.0394,0.0351,0.0377,
江東 (Koto),2016-09-01,14:01～15:00,0.0409,0.0356,0.0378,
江東 (Koto),2016-09-01,13:01～14:00,0.0403,0.0352,0.0375,
江東 (Koto),2016-09-01,12:01～13:00,0.0411,0.0357,0.0377,
江東 (Koto),2016-09-01,11:01～12:00,0.0398,0.0354,0.0376,
江東 (Koto),2016-09-01,10:01～11:00,0.0400,0.0354,0.0379,
江東 (Koto),2016-09-01,09:01～10:00,0.0404,0.0359,0.0380,
江東 (Koto),2016-09-01,08:01～09:00,0.0401,0.0356,0.0381,
江東 (Koto),2016-09-01,07:01～08:00,0.0407,0.0356,0.0379,
江東 (Koto),2016-09-01,06:01～07:00,0.0404,0.0359,0.0381,
江東 (Koto),2016-09-01,05:01～06:00,0.0395,0.0360,0.0378,
江東 (Koto),2016-09-01,04:01～05:00,0.0398,0.0352,0.0378,
江東 (Koto),2016-09-01,03:01～04:00,0.0406,0.0358,0.0376,
江東 (Koto),2016-09-01,02:01～03:00,0.0408,0.0358,0.0381,
江東 (Koto),2016-09-01,01:01～02:00,0.0414,0.0351,0.0377,
江東 (Koto),2016-09-01,00:01～01:00,0.0411,0.0352,0.0376,
江東 (Koto),2016-08-31,23:01～24:00,0.0405,0.0355,0.0377,
江東 (Koto),2016-08-31,22:01～23:00,0.0406,0.0350,0.0377,
江東 (Koto),2016-08-31,21:01～22:00,0.0398,0.0351,0.0377,
江東 (Koto),2016-08-31,20:01～21:00,0.0400,0.0360,0.0375,
江東 (Koto),2016-08-31,19:01～20:00,0.0399,0.0354,0.0379,
江東 (Koto),2016-08-31,18:01～19:00,0.0400,0.0353,0.0377,
江東 (Koto),2016-08-31,17:01～18:00,0.0406,0.0357,0.0378,
江東 (Koto),2016-08-31,16:01～17:00,0.0398,0.0360,0.0378,
江東 (Koto),2016-08-31,15:01～16:00,0.0399,0.0354,0.0377,
江東 (Koto),2016-08-31,14:01～15:00,0.0402,0.0353,0.0376,
江東 (Koto),2016-08-31,13:01～14:00,0.0400,0.0364,0.0380,
江東 (Koto),2016-08-31,12:01～13:00,0.0398,0.0356,0.0377,
江東 (Koto),2016-08-31,11:01～12:00,0.0403,0.0358,0.0378,
江東 (Koto),2016-08-31,10:01～11:00,0.0401,0.0355,0.0378,
江東 (Koto),2016-08-31,09:01～10:00,0.0398,0.0357,0.0377,
江東 (Koto),2016-08-31,08:01～09:00,0.0407,0.0354,0.0380,
江東 (Koto),2016-08-31,07:01～08:00,0.0410,0.0354,0.0379,
江東 (Koto),2016-08-31,06:01～07:00,0.0396,0.0354,0.0376,
江東 (Koto),2016-08-31,05:01～06:00,0.0399,0.0356,0.0379,
江東 (Koto),2016-08-31,04:01～05:00,0.0399,0.0354,0.0376,
江東 (Koto),2016-08-31,03:01～04:00,0.0404,0.0348,0.0379,
江東 (Koto),2016-08-31,02:01～03:00,0.0400,0.0352,0.0376,
江東 (Koto),2016-08-31,01:01～02:00,0.0398,0.0357,0.0380,
江東 (Koto),2016-08-31,00:01～01:00,0.0399,0.0356,0.0378,
江東 (Koto),2016-08-30,23:01～24:00,0.0399,0.0350,0.0378,
江東 (Koto),2016-08-30,22:01～23:00,0.0409,0.0357,0.0378,
江東 (Koto),2016-08-30,21:01～22:00,0.0407,0.0355,0.0377,
江東 (Koto),2016-08-30,20:01～21:00,0.0400,0.0357,0.0378,
江東 (Koto),2016-08-30,19:01～20:00,0.0418,0.0357,0.0379,
江東 (Koto),2016-08-30,18:01～19:00,0.0400,0.0346,0.0377,
江東 (Koto),2016-08-30,17:01～18:00,0.0414,0.0353,0.0385,
江東 (Koto),2016-08-30,16:01～17:00,0.0421,0.0362,0.0396,
江東 (Koto),2016-08-30,15:01～16:00,0.0407,0.0352,0.0383,
江東 (Koto),2016-08-30,14:01～15:00,0.0416,0.0362,0.0395,
江東 (Koto),2016-08-30,13:01～14:00,0.0407,0.0360,0.0381,
江東 (Koto),2016-08-30,12:01～13:00,0.0402,0.0352,0.0374,
江東 (Koto),2016-08-30,11:01～12:00,0.0405,0.0352,0.0375,
江東 (Koto),2016-08-30,10:01～11:00,0.0409,0.0357,0.0379,
江東 (Koto),2016-08-30,09:01～10:00,0.0409,0.0362,0.0382,
江東 (Koto),2016-08-30,08:01～09:00,0.0411,0.0361,0.0389,
江東 (Koto),2016-08-30,07:01～08:00,0.0419,0.0375,0.0395,
江東 (Koto),2016-08-30,06:01～07:00,0.0436,0.0383,0.0409,
江東 (Koto),2016-08-30,05:01～06:00,0.0436,0.0385,0.0411,
江東 (Koto),2016-08-30,04:01～05:00,0.0416,0.0369,0.0384,
江東 (Koto),2016-08-30,03:01～04:00,0.0401,0.0354,0.0381,
江東 (Koto),2016-08-30,02:01～03:00,0.0409,0.0362,0.0386,
江東 (Koto),2016-08-30,01:01～02:00,0.0412,0.0359,0.0387,
江東 (Koto),2016-08-30,00:01～01:00,0.0409,0.0362,0.0380,
江東 (Koto),2016-08-29,23:01～24:00,0.0405,0.0342,0.0376,
江東 (Koto),2016-08-29,22:01～23:00,0.0401,0.0338,0.0375,
江東 (Koto),2016-08-29,21:01～22:00,0.0407,0.0351,0.0379,
江東 (Koto),2016-08-29,20:01～21:00,0.0404,0.0356,0.0376,
江東 (Koto),2016-08-29,19:01～20:00,0.0404,0.0353,0.0374,
江東 (Koto),2016-08-29,18:01～19:00,0.0399,0.0354,0.0379,
江東 (Koto),2016-08-29,17:01～18:00,0.0408,0.0352,0.0380,
江東 (Koto),2016-08-29,16:01～17:00,0.0409,0.0353,0.0377,
江東 (Koto),2016-08-29,15:01～16:00,0.0399,0.0347,0.0377,
江東 (Koto),2016-08-29,14:01～15:00,0.0408,0.0357,0.0377,
江東 (Koto),2016-08-29,13:01～14:00,0.0401,0.0350,0.0377,
江東 (Koto),2016-08-29,12:01～13:00,0.0403,0.0355,0.0375,
江東 (Koto),2016-08-29,11:01～12:00,0.0401,0.0350,0.0375,
江東 (Koto),2016-08-29,10:01～11:00,0.0392,0.0350,0.0373,
江東 (Koto),2016-08-29,09:01～10:00,0.0395,0.0354,0.0376,
江東 (Koto),2016-08-29,08:01～09:00,0.0402,0.0356,0.0375,
江東 (Koto),2016-08-29,07:01～08:00,0.0407,0.0355,0.0377,
江東 (Koto),2016-08-29,06:01～07:00,0.0415,0.0356,0.0381,
江東 (Koto),2016-08-29,05:01～06:00,0.0404,0.0354,0.0380,
江東 (Koto),2016-08-29,04:01～05:00,0.0402,0.0350,0.0378,
江東 (Koto),2016-08-29,03:01～04:00,0.0402,0.0356,0.0380,
江東 (Koto),2016-08-29,02:01～03:00,0.0409,0.0341,0.0377,
江東 (Koto),2016-08-29,01:01～02:00,0.0401,0.0356,0.0379,
江東 (Koto),2016-08-29,00:01～01:00,0.0401,0.0353,0.0378,
